SB KEPS @ AMSAT $ORB15015.O
Orbital Elements 15015.OSCAR
HR AMSAT ORBITAL ELEMENTS FOR OSCAR SATELLITES
FROM WA5QGD FORT WORTH,TX January 15, 2015
BID: ORB15015.O
TO ALL RADIO AMATEURS BT
Satellite: AO-07
Catalog number: 07530
Epoch time: 15014.86778052
Element set: 168
Inclination: 101.5011 deg
RA of node: 354.9383 deg
Eccentricity: 0.0011658
Arg of perigee: 241.5026 deg
Mean anomaly: 232.3028 deg
Mean motion: 12.53611227 rev/day
Decay rate: -4.1e-07 rev/day^2
Epoch rev: 83804
Checksum: 266
Satellite: FO-29
Catalog number: 24278
Epoch time: 15015.53627471
Element set: 558
Inclination: 098.5224 deg
RA of node: 005.1191 deg
Eccentricity: 0.0351477
Arg of perigee: 106.6794 deg
Mean anomaly: 005.7172 deg
Mean motion: 13.53041375 rev/day
Decay rate: -1.4e-07 rev/day^2
Epoch rev: 90938
Checksum: 306
Satellite: SO-33
Catalog number: 25509
Epoch time: 15015.49086654
Element set: 923
Inclination: 031.4347 deg
RA of node: 037.2298 deg
Eccentricity: 0.0348778
Arg of perigee: 174.7940 deg
Mean anomaly: 312.9658 deg
Mean motion: 14.29799400 rev/day
Decay rate: 4.79e-06 rev/day^2
Epoch rev: 84755
Checksum: 355
Satellite: RS-22
Catalog number: 27939
Epoch time: 15015.72500324
Element set: 220
Inclination: 097.8223 deg
RA of node: 184.5846 deg
Eccentricity: 0.0013465
Arg of perigee: 149.0796 deg
Mean anomaly: 211.1205 deg
Mean motion: 14.65717758 rev/day
Decay rate: 1.369e-05 rev/day^2
Epoch rev: 60385
Checksum: 308
Satellite: HO-68
Catalog number: 36122
Epoch time: 15015.69954961
Element set: 302
Inclination: 100.2187 deg
RA of node: 065.8011 deg
Eccentricity: 0.0007917
Arg of perigee: 110.4623 deg
Mean anomaly: 249.7337 deg
Mean motion: 13.16322837 rev/day
Decay rate: -6.0e-07 rev/day^2
Epoch rev: 24439
Checksum: 286
Satellite: AO-73
Catalog number: 39444
Epoch time: 15014.81259705
Element set: 357
Inclination: 097.7517 deg
RA of node: 083.1195 deg
Eccentricity: 0.0059390
Arg of perigee: 275.3252 deg
Mean anomaly: 084.1186 deg
Mean motion: 14.79455460 rev/day
Decay rate: 2.827e-05 rev/day^2
Epoch rev: 6073
Checksum: 329
Satellite: EO-79
Catalog number: 40025
Epoch time: 15015.78150215
Element set: 616
Inclination: 097.9668 deg
RA of node: 275.7777 deg
Eccentricity: 0.0012749
Arg of perigee: 329.2999 deg
Mean anomaly: 030.7450 deg
Mean motion: 14.86371582 rev/day
Decay rate: 3.470e-05 rev/day^2
Epoch rev: 3115
Checksum: 331
/EX
SB KEPS @ AMSAT $ORB15015.D
Orbital Elements 15015.MICROS
HR AMSAT ORBITAL ELEMENTS FOR THE MICROSATS
FROM WA5QGD FORT WORTH,TX January 15, 2015
BID: ORB15015.D
TO ALL RADIO AMATEURS BT
Satellite: UO-11
Catalog number: 14781
Epoch time: 15015.40318841
Element set: 716
Inclination: 097.8236 deg
RA of node: 076.1024 deg
Eccentricity: 0.0008449
Arg of perigee: 200.3603 deg
Mean anomaly: 159.7275 deg
Mean motion: 14.82093265 rev/day
Decay rate: 9.35e-06 rev/day^2
Epoch rev: 65939
Checksum: 307
Satellite: AO-16
Catalog number: 20439
Epoch time: 15014.89075541
Element set: 218
Inclination: 098.5288 deg
RA of node: 313.4504 deg
Eccentricity: 0.0009802
Arg of perigee: 250.8869 deg
Mean anomaly: 149.8820 deg
Mean motion: 14.32473557 rev/day
Decay rate: 1.72e-06 rev/day^2
Epoch rev: 30479
Checksum: 319
Satellite: LO-19
Catalog number: 20442
Epoch time: 15015.46795070
Element set: 151
Inclination: 098.4999 deg
RA of node: 314.0348 deg
Eccentricity: 0.0010932
Arg of perigee: 236.4725 deg
Mean anomaly: 123.5416 deg
Mean motion: 14.32670497 rev/day
Decay rate: 1.66e-06 rev/day^2
Epoch rev: 30507
Checksum: 297
Satellite: AO-27
Catalog number: 22825
Epoch time: 15014.81001399
Element set: 866
Inclination: 098.6904 deg
RA of node: 325.0461 deg
Eccentricity: 0.0009009
Arg of perigee: 044.6180 deg
Mean anomaly: 347.8128 deg
Mean motion: 14.29820149 rev/day
Decay rate: 1.40e-06 rev/day^2
Epoch rev: 11102
Checksum: 281
Satellite: IO-26
Catalog number: 22826
Epoch time: 15015.45368659
Element set: 623
Inclination: 098.6849 deg
RA of node: 325.8760 deg
Eccentricity: 0.0009355
Arg of perigee: 034.9820 deg
Mean anomaly: 325.1975 deg
Mean motion: 14.30131037 rev/day
Decay rate: 1.50e-06 rev/day^2
Epoch rev: 11125
Checksum: 301
Satellite: GO-32
Catalog number: 25397
Epoch time: 15014.94462449
Element set: 544
Inclination: 098.5005 deg
RA of node: 330.3609 deg
Eccentricity: 0.0002231
Arg of perigee: 076.9286 deg
Mean anomaly: 329.4816 deg
Mean motion: 14.23507927 rev/day
Decay rate: 7.8e-07 rev/day^2
Epoch rev: 85799
Checksum: 331
Satellite: NO-44
Catalog number: 26931
Epoch time: 15014.87125140
Element set: 798
Inclination: 067.0501 deg
RA of node: 212.5476 deg
Eccentricity: 0.0006949
Arg of perigee: 268.3558 deg
Mean anomaly: 091.6747 deg
Mean motion: 14.30239542 rev/day
Decay rate: 1.16e-06 rev/day^2
Epoch rev: 69387
Checksum: 321
Satellite: SO-50
Catalog number: 27607
Epoch time: 15015.30697527
Element set: 634
Inclination: 064.5582 deg
RA of node: 305.4729 deg
Eccentricity: 0.0071506
Arg of perigee: 319.0219 deg
Mean anomaly: 040.5522 deg
Mean motion: 14.74370066 rev/day
Decay rate: 1.700e-05 rev/day^2
Epoch rev: 64874
Checksum: 297
Satellite: CO-55
Catalog number: 27844
Epoch time: 15014.70571984
Element set: 116
Inclination: 098.6968 deg
RA of node: 025.4259 deg
Eccentricity: 0.0009997
Arg of perigee: 030.6624 deg
Mean anomaly: 029.7503 deg
Mean motion: 14.21685524 rev/day
Decay rate: 3.64e-06 rev/day^2
Epoch rev: 59863
Checksum: 341
Satellite: CO-57
Catalog number: 27848
Epoch time: 15015.48259329
Element set: 53
Inclination: 098.7065 deg
RA of node: 026.0181 deg
Eccentricity: 0.0009978
Arg of perigee: 035.4408 deg
Mean anomaly: 128.0135 deg
Mean motion: 14.21349751 rev/day
Decay rate: 2.50e-06 rev/day^2
Epoch rev: 59865
Checksum: 320
Satellite: AO-51
Catalog number: 28375
Epoch time: 15015.47658796
Element set: 38
Inclination: 098.2778 deg
RA of node: 320.4500 deg
Eccentricity: 0.0083980
Arg of perigee: 071.3336 deg
Mean anomaly: 289.6948 deg
Mean motion: 14.41555072 rev/day
Decay rate: 3.03e-06 rev/day^2
Epoch rev: 55449
Checksum: 335
Satellite: CP3
Catalog number: 31129
Epoch time: 15014.90815134
Element set: 947
Inclination: 097.9615 deg
RA of node: 347.5406 deg
Eccentricity: 0.0098600
Arg of perigee: 071.8173 deg
Mean anomaly: 341.5902 deg
Mean motion: 14.55351044 rev/day
Decay rate: 1.473e-05 rev/day^2
Epoch rev: 41082
Checksum: 291
Satellite: CO-65
Catalog number: 32785
Epoch time: 15014.84648884
Element set: 166
Inclination: 097.6717 deg
RA of node: 063.9444 deg
Eccentricity: 0.0013105
Arg of perigee: 206.8967 deg
Mean anomaly: 206.1457 deg
Mean motion: 14.86237965 rev/day
Decay rate: 2.192e-05 rev/day^2
Epoch rev: 36345
Checksum: 345
Satellite: PRISM
Catalog number: 33493
Epoch time: 15015.84610068
Element set: 673
Inclination: 098.2520 deg
RA of node: 205.9407 deg
Eccentricity: 0.0017467
Arg of perigee: 107.3202 deg
Mean anomaly: 252.9912 deg
Mean motion: 14.91723869 rev/day
Decay rate: 6.351e-05 rev/day^2
Epoch rev: 32385
Checksum: 300
Satellite: SOHLA-1
Catalog number: 33496
Epoch time: 15014.95753844
Element set: 562
Inclination: 098.1915 deg
RA of node: 141.7657 deg
Eccentricity: 0.0005132
Arg of perigee: 291.8231 deg
Mean anomaly: 182.5113 deg
Mean motion: 14.71145129 rev/day
Decay rate: 5.75e-06 rev/day^2
Epoch rev: 32064
Checksum: 294
Satellite: TISAT-1
Catalog number: 36799
Epoch time: 15015.22442934
Element set: 847
Inclination: 098.0157 deg
RA of node: 113.9991 deg
Eccentricity: 0.0012915
Arg of perigee: 354.0036 deg
Mean anomaly: 062.1848 deg
Mean motion: 14.87333446 rev/day
Decay rate: 5.107e-05 rev/day^2
Epoch rev: 24421
Checksum: 305
Satellite: STUDSAT
Catalog number: 36801
Epoch time: 15015.37352381
Element set: 984
Inclination: 098.0528 deg
RA of node: 127.3628 deg
Eccentricity: 0.0005882
Arg of perigee: 299.4946 deg
Mean anomaly: 101.3503 deg
Mean motion: 15.04687450 rev/day
Decay rate: 2.4078e-04 rev/day^2
Epoch rev: 24493
Checksum: 313
Satellite: ALMASAT-1
Catalog number: 38078
Epoch time: 15015.52654308
Element set: 271
Inclination: 069.4584 deg
RA of node: 261.7558 deg
Eccentricity: 0.0526320
Arg of perigee: 107.2751 deg
Mean anomaly: 258.6651 deg
Mean motion: 14.66030327 rev/day
Decay rate: 3.8871e-04 rev/day^2
Epoch rev: 15256
Checksum: 312
Satellite: XATCOBEO
Catalog number: 38082
Epoch time: 14243.34478676
Element set: 563
Inclination: 069.3815 deg
RA of node: 097.0364 deg
Eccentricity: 0.0033293
Arg of perigee: 225.1799 deg
Mean anomaly: 135.4582 deg
Mean motion: 16.41261006 rev/day
Decay rate: 1.3583328e-01 rev/day^2
Epoch rev: 13623
Checksum: 317
Satellite: CUBEBUG-1
Catalog number: 39153
Epoch time: 15015.45164124
Element set: 792
Inclination: 098.0281 deg
RA of node: 100.2624 deg
Eccentricity: 0.0017958
Arg of perigee: 030.7421 deg
Mean anomaly: 329.4837 deg
Mean motion: 14.78625859 rev/day
Decay rate: 2.046e-05 rev/day^2
Epoch rev: 9290
Checksum: 301
Satellite: ESTCUBE-1
Catalog number: 39161
Epoch time: 15015.69140238
Element set: 846
Inclination: 098.0831 deg
RA of node: 099.9409 deg
Eccentricity: 0.0010997
Arg of perigee: 080.6236 deg
Mean anomaly: 279.6203 deg
Mean motion: 14.70705284 rev/day
Decay rate: 1.869e-05 rev/day^2
Epoch rev: 9082
Checksum: 323
Satellite: DUCHIFAT-1
Catalog number: 40021
Epoch time: 15015.67826237
Element set: 620
Inclination: 097.9657 deg
RA of node: 275.8011 deg
Eccentricity: 0.0013640
Arg of perigee: 330.2251 deg
Mean anomaly: 029.8193 deg
Mean motion: 14.86893347 rev/day
Decay rate: 4.620e-05 rev/day^2
Epoch rev: 3113
Checksum: 280
Satellite: NANOSATCBR1
Catalog number: 40024
Epoch time: 15015.56537464
Element set: 607
Inclination: 097.9648 deg
RA of node: 275.5942 deg
Eccentricity: 0.0012440
Arg of perigee: 330.5309 deg
Mean anomaly: 029.5209 deg
Mean motion: 14.86623692 rev/day
Decay rate: 4.254e-05 rev/day^2
Epoch rev: 3111
Checksum: 290
